Printer-friendly version

IAU Minor Planet Center

Minor Planet Center

MPEC 2003-W18 : 2000 EB107

The following Minor Planet Electronic Circular may be linked-to from your own Web pages, but must not otherwise be redistributed electronically.


Read MPEC 2003-W17 Read MPEC 2003-W19


M.P.E.C. 2003-W18                                Issued 2003 Nov. 19, 13:38 UT

     The Minor Planet Electronic Circulars contain information on unusual
         minor planets and routine data on comets.  They are published
   on behalf of Commission 20 of the International Astronomical Union by the
          Minor Planet Center, Smithsonian Astrophysical Observatory,
                          Cambridge, MA 02138, U.S.A.

         Supported in part by the Steven and Michele Kirsch Foundation
             Prepared using the Tamkin Foundation Computer Network

                              MPC@CFA.HARVARD.EDU
          URL http://cfa-www.harvard.edu/iau/mpc.html  ISSN 1523-6714

                                  2000 EB107

                           Revision to MPEC 2000-F29

Additional Observations:
     K00EA7B 2C2003 10 25.49536004 28 02.525-05 47 39.69                     568
     K00EA7B 2C2003 10 25.50142004 28 02.342-05 47 42.04         22.5 R      568
     K00EA7B 2C2003 10 25.50748604 28 02.145-05 47 44.42         22.6 R      568
     K00EA7B 2C2003 10 26.43985804 27 33.451-05 53 33.42         23.3 R      568
     K00EA7B 2C2003 10 26.44723304 27 33.215-05 53 36.24         23.3 R      568
     K00EA7B 2C2003 10 26.45487004 27 32.976-05 53 39.01         23.5 R      568
     K00EA7B 2C2003 10 29.48553904 25 54.564-06 12 14.50         23.2 R      568
     K00EA7B 2C2003 10 29.49312804 25 54.305-06 12 17.33         23.1 R      568

Observer details:
568 Mauna Kea.  Observers D. J. Tholen, F. Bernardi.  2.2-m University of
    Hawaii reflector + CCD.

First and last observations above in comparison with prediction:
Residuals in seconds of arc, reference and Delta-T
031025 568  5.9+  0.5+    031029 568  6.2+  0.3+    MPO  3930   -0.022 day

Orbital elements:
2000 EB107
Epoch 2003 Dec. 27.0 TT = JDT 2453000.5                 MPC
M 245.67488              (2000.0)            P               Q
n   0.18690462     Peri.   43.39264     -0.75242399     +0.65842829
a   3.0296283      Node   177.56224     -0.65776010     -0.75254519
e   0.5851293      Incl.   25.29644     +0.03478198     +0.01216262
P   5.27           H   16.9           G   0.15           U   1
Residuals in seconds of arc
000309 704  0.7-  0.5+    000321 595  0.6-  0.2-    000406 118  0.1+  0.0
000309 704  0.0   0.2-    000321 118  1.1+  0.7-    000406 118  0.3-  0.6+
000309 704  0.4+  0.7+    000321 118  0.3+  1.3+    000408 118  0.6-  0.1-
000309 704  0.1+  0.1+    000321 118  1.2-  0.8-    000408 118  0.6-  0.2-
000309 704  0.3-  0.8+    000322 046  0.1-  0.2-    000410 670  0.7+  0.4-
000312 704  0.2+  0.5-    000322 046  0.2+  0.1-    000411 402  0.5-  0.3-
000312 704  0.4+  0.1-    000322 046  0.2+  0.1+    000411 402  0.1+  0.3+
000312 704  0.1-  0.3-    000322 046  0.2-  0.3+    000411 402  0.3-  0.1-
000312 704  0.8+  0.6-    000322 118  0.2+  0.2-    000417 118  0.7+  0.0
000312 704  0.1+  0.4-    000322 118  0.2+  0.3-    000417 118  1.5+  0.0
000313 704  0.4+  0.2-    000322 118  0.0   0.3-    000420 360  0.9-  0.8+
000313 704  0.5-  0.2+    000323 850  0.4+  0.9-    000420 360  0.5-  0.3+
000313 704  0.9+  0.1+    000323 850  0.3+  0.6-    000420 360  0.2-  0.2+
000313 704  0.2+  0.3-    000323 850  0.3+  0.1-    000421 118  0.2-  0.1+
000313 704  0.6-  0.2-    000323 850  0.2+  0.5-    000421 118  0.2+  0.4-
000313 704  0.0   1.2+    000323 658  0.4+  0.4-    000423 118  0.6+  0.4+
000313 704  0.4-  0.5+    000323 658  0.2+  0.2-    000423 118  0.4+  0.3+
000313 704  0.4-  0.1-    000323 658  0.5+  0.1-    000425 587  0.0   0.1-
000314 703  0.4-  0.2-    000323 557  0.3+  0.2-    000425 587  0.2+  0.3+
000314 703  0.1+  0.2+    000323 557  0.0   0.4-    000505 118  0.1+  0.1-
000314 703  0.2-  0.1-    000323 557  0.4-  0.3-    000505 118  0.1-  0.1-
000314 703  0.2-  0.1-    000323 557  0.4-  0.1-    000514 557  0.0   0.7+
000315 704  0.2+  0.3-    000323 118  0.2+  0.0     000514 557  0.0   1.2+
000315 704  0.1+  0.2+    000323 118  0.1-  0.1-    000514 557  0.0   0.4+
000315 704  0.4-  1.2+    000323 118  0.2-  0.0     000514 557  0.1+  0.3+
000315 704  0.7-  0.5+    000331 670  0.8-  0.2-    000514 557  0.0   0.1-
000320 402  1.3+  0.9+    000331 670  0.6+  0.8-    000706 695  1.1-  0.3+
000320 402  0.3-  1.4+    000403 670  0.7+  0.3-    000706 695  1.0-  0.0
000320 402  0.0   0.1+    000403 704  0.8+  0.0     000708 413  0.3-  0.2-
000320 402  0.1+  0.3-    000403 704  0.7+  0.4+    000708 413  0.2-  0.1-
000321 557  0.0   0.4-    000403 704  0.2+  0.2+    000708 413  0.0   0.1-
000321 557  0.3-  0.4+    000403 704  0.6+  0.6+    000723 413  0.7-  0.6+
000321 046  0.4+  0.3+    000403 670  0.5+  1.0+    000723 413  0.2-  0.3-
000321 046  0.5+  0.5+    000403 704  0.2-  0.1+    000723 413  0.6-  0.7+
000321 046  0.5+  0.6+    000404 704  0.2-  0.1-    031025 568  0.1-  0.1+
000321 046  0.3+  0.2+    000404 704  0.5-  1.1+    031025 568  0.0   0.0
000321 163  0.4+  0.6-    000404 704  0.9-  0.0     031025 568  0.1-  0.1-
000321 163  0.9-  0.5-    000404 704  0.7-  1.1+    031026 568  0.0   0.1+
000321 163  1.0-  0.3-    000404 704  0.5+  0.5+    031026 568  0.0   0.1+
000321 595  0.6-  0.8-    000406 360  0.4-  0.2-    031026 568  0.1+  0.2+
000321 595  0.4-  1.7-    000406 360  0.6-  0.3-    031029 568  0.0   0.0
000321 595  0.1-  1.4-    000406 360  0.5-  0.1-    031029 568  0.1+  0.1-

Ephemeris:
2000 EB107               a,e,i = 3.03, 0.59, 25                  q = 1.2569
Date    TT    R. A. (2000) Decl.     Delta      r     Elong.  Phase     V
2003 11 17    04 13.71   -07 49.5    3.541    4.432   151.0     6.2    23.4
2003 11 27    04 06.16   -08 25.5    3.521    4.408   150.6     6.3    23.3
2003 12 07    03 58.61   -08 46.8    3.530    4.382   146.0     7.2    23.4

Timothy B. Spahr             (C) Copyright 2003 MPC           M.P.E.C. 2003-W18

Read MPEC 2003-W17 Read MPEC 2003-W19


Our Web policy. Index to the CBAT/MPC/ICQ pages.


Valid HTML 4.01!